{"data":{"norad_id":48865,"intl_designator":"2021-056A","name":"COSMOS 2550","alt_names":[],"object_type":"PAYLOAD","status":"ACTIVE","operator":null,"country":"CIS","launch_date":"2021-06-25","launch_site_code":"PLMSC","launch_vehicle":null,"mission":null,"orbit_class":"UNKNOWN","rcs_meters":null,"size_class":null,"mass_kg":null,"dimensions":null,"purposes":[],"wikipedia_slug":null,"has_3d_model":false,"image_url":null,"decayed_at":null,"tle_current":{"epoch":"2026-09-21T00:13:51.600864Z","epoch_age_seconds":53717,"freshness":"FRESH","line1":"1 48865U 21056A   26264.00962501  .00003437  00000+0  11023-3 0  9994","line2":"2 48865  67.1431 170.0432 0008346 268.1401  91.8797 15.33837826293411","mean_motion":15.33837826,"eccentricity":0.0008346,"inclination_deg":67.1431,"raan_deg":170.0432,"arg_perigee_deg":268.1401,"mean_anomaly_deg":91.8797,"bstar":0.00011023,"rev_number":29341,"period_min":93.882154657464,"perigee_km":458.66388990488,"apogee_km":470.08541035127,"semimajor_km":6842.5116501281,"source":"CELESTRAK","updated_at":"2026-09-21T09:00:07.901796Z"}}}